Weather History for Lihue, HI

Change the Weather History Date:

Tuesday, July 17, 2012

  Actual Average Record
Temperature  
Mean Temperature 76 °F 79 °F  
Max Temperature 81 °F 84 °F 86 °F (1957)
Min Temperature 71 °F 74 °F 68 °F (1955)
Degree Days  
Heating Degree Days 0 0  
Month to date heating degree days 0 0  
Since 1 June heating degree days 0 0  
Since 1 July heating degree days 0 0  
Cooling Degree Days 11 14  
Month to date cooling degree days 221 238  
Year to date cooling degree days 2017 1871  
Since 1 June cooling degree days 611 632  
Growing Degree Days 26 (Base 50)    
Moisture  
Dew Point 70 °F    
Average Humidity 80    
Maximum Humidity 93    
Minimum Humidity 67    
Precipitation  
Precipitation 0.08 in 0.06 in 1.12 in (1974)
Month to date precipitation 0.53 0.94  
Year to date precipitation 33.75 18.39  
Snow  
Snow 0.00 in - - ()
Month to date snowfall 0.0  
Since 1 June snowfall 0.0  
Since 1 July snowfall 0.0  
Snow Depth 0.00 in    
Sea Level Pressure  
Sea Level Pressure 30.05 in    
Wind  
Wind Speed 18 mph (NE)    
Max Wind Speed 26 mph    
Max Gust Speed 33 mph    
Visibility 8 miles    
Events Rain    
T = Trace of Precipitation, MM = Missing Value Source: NWS Daily Summary

Daily Weather History Graph

Daily Weather History Graph

Search for Another Location

Airport:

Trip Planner

Search our weather history database for the weather conditions in past years. The results will help you decide how hot, cold, wet, or windy it might be!

Date:

Astronomy

Jul. 17, 2012 Rise Set
Actual Time 6:03 AM HST 7:23 PM HST
Civil Twilight 5:39 AM HST 7:47 PM HST
Nautical Twilight 5:10 AM HST 8:16 PM HST
Astronomical Twilight 4:40 AM HST 8:46 PM HST
Moon 4:50 AM HST (7/17) 6:24 PM HST (7/17)
Length of Visible Light 14h 08m
Length of Day
13h 19m
Waning Crescent, 2% of the Moon is Illuminated
Jul 17
Waning Crescent
Jul 18
New
Jul 25
First Quarter
Aug 1
Full
Aug 9
Last Quarter

Hourly Weather History & Observations

Time (HST) Temp. Heat Index Dew Point Humidity Pressure Visibility Wind Dir Wind Speed Gust Speed Precip Events Conditions
12:53 AM 75.9 °F - 69.1 °F 79% 30.04 in 10.0 mi NE 15.0 mph - N/A   Scattered Clouds
1:53 AM 73.0 °F - 69.1 °F 87% 30.02 in 10.0 mi NNE 16.1 mph - 0.01 in   Overcast
2:53 AM 73.9 °F - 70.0 °F 87% 30.02 in 10.0 mi NE 17.3 mph - 0.00 in   Overcast
3:42 AM 73.4 °F - 69.8 °F 88% 30.02 in 4.0 mi NE 17.3 mph 27.6 mph 0.00 in Rain Light Rain
3:53 AM 73.0 °F - 70.0 °F 90% 30.01 in 10.0 mi NE 17.3 mph - 0.00 in   Overcast
4:00 AM 73.4 °F - 69.8 °F 88% 30.02 in 10.0 mi NE 18.4 mph - N/A   Overcast
4:10 AM 73.4 °F - 69.8 °F 88% 30.02 in 10.0 mi NE 19.6 mph - N/A   Overcast
4:22 AM 73.4 °F - 69.8 °F 88% 30.02 in 8.0 mi NE 20.7 mph 27.6 mph N/A   Overcast
4:32 AM 73.4 °F - 69.8 °F 88% 30.02 in 3.0 mi NE 21.9 mph 26.5 mph 0.01 in Rain Light Rain
4:53 AM 73.0 °F - 70.0 °F 90% 30.01 in 6.0 mi ENE 19.6 mph 25.3 mph 0.01 in Rain Light Rain
5:05 AM 73.4 °F - 71.6 °F 94% 30.02 in 2.5 mi ENE 19.6 mph 27.6 mph 0.00 in Rain Light Rain
5:12 AM 73.4 °F - 71.6 °F 94% 30.02 in 4.0 mi NE 19.6 mph - 0.01 in Rain Light Rain
5:19 AM 73.4 °F - 71.6 °F 94% 30.02 in 9.0 mi NE 19.6 mph - 0.01 in   Overcast
5:40 AM 73.4 °F - 71.6 °F 94% 30.03 in 6.0 mi ENE 18.4 mph - 0.01 in Rain Light Rain
5:53 AM 73.0 °F - 70.0 °F 90% 30.02 in 4.0 mi NE 23.0 mph 28.8 mph 0.01 in Rain Rain
6:06 AM 73.4 °F - 69.8 °F 88% 30.03 in 10.0 mi ENE 20.7 mph - 0.01 in   Overcast
6:46 AM 73.4 °F - 69.8 °F 88% 30.04 in 10.0 mi East 17.3 mph - 0.01 in   Overcast
6:53 AM 73.9 °F - 70.0 °F 87% 30.03 in 10.0 mi ENE 18.4 mph - 0.01 in   Overcast
7:04 AM 71.6 °F - 68.0 °F 88% 30.05 in 2.5 mi ENE 23.0 mph 33.4 mph 0.01 in Rain Rain
7:17 AM 71.6 °F - 68.0 °F 88% 30.05 in 6.0 mi NE 20.7 mph - 0.01 in Rain Light Rain
7:27 AM 73.4 °F - 69.8 °F 88% 30.04 in 10.0 mi NE 16.1 mph - 0.01 in   Overcast
7:53 AM 75.0 °F - 70.0 °F 84% 30.04 in 10.0 mi ENE 18.4 mph - 0.01 in   Mostly Cloudy
8:53 AM 77.0 °F - 70.0 °F 79% 30.06 in 10.0 mi NE 18.4 mph - N/A   Scattered Clouds
9:37 AM 77.0 °F - 69.8 °F 78% 30.07 in 10.0 mi NE 20.7 mph 26.5 mph 0.00 in Rain Light Rain
9:42 AM 75.2 °F - 69.8 °F 83% 30.07 in 7.0 mi ENE 19.6 mph 26.5 mph 0.00 in Rain Light Rain
9:53 AM 73.9 °F - 70.0 °F 87% 30.06 in 5.0 mi ENE 18.4 mph - 0.00 in Rain Light Rain
10:15 AM 75.2 °F - 71.6 °F 89% 30.07 in 6.0 mi NE 21.9 mph - 0.00 in Rain Light Rain
10:18 AM 73.4 °F - 69.8 °F 88% 30.07 in 1.5 mi ENE 21.9 mph - 0.00 in Rain Light Rain
10:42 AM 73.4 °F - 71.6 °F 94% 30.07 in 1.5 mi NE 18.4 mph 23.0 mph 0.01 in Rain Light Rain
10:44 AM 73.4 °F - 71.6 °F 94% 30.07 in 1.5 mi ENE 17.3 mph 23.0 mph 0.01 in Rain Light Rain
10:46 AM 73.4 °F - 71.6 °F 94% 30.07 in 1.5 mi NE 19.6 mph - 0.01 in Rain Light Rain
10:48 AM 73.4 °F - 71.6 °F 94% 30.07 in 1.5 mi ENE 18.4 mph - 0.01 in Rain Light Rain
10:53 AM 75.0 °F - 72.0 °F 90% 30.06 in 5.0 mi NE 16.1 mph - 0.01 in   Mostly Cloudy
11:15 AM 75.2 °F - 71.6 °F 89% 30.07 in 2.0 mi NE 20.7 mph - 0.00 in Rain Rain
11:22 AM 73.4 °F - 71.6 °F 94% 30.08 in 2.0 mi NE 17.3 mph - 0.01 in Rain Light Rain
11:37 AM 75.2 °F - 71.6 °F 89% 30.07 in 10.0 mi ENE 19.6 mph 25.3 mph 0.02 in   Overcast
11:53 AM 75.0 °F - 71.1 °F 87% 30.06 in 10.0 mi ENE 19.6 mph 28.8 mph 0.02 in   Overcast
12:01 PM 75.2 °F - 71.6 °F 89% 30.07 in 10.0 mi ENE 18.4 mph - N/A   Overcast
12:53 PM 81.0 °F 84.4 °F 70.0 °F 69% 30.05 in 10.0 mi NE 17.3 mph 23.0 mph N/A   Overcast
1:53 PM 79.0 °F - 66.9 °F 66% 30.05 in 10.0 mi NE 15.0 mph - N/A   Overcast
2:53 PM 80.1 °F 82.7 °F 68.0 °F 67% 30.03 in 10.0 mi NE 17.3 mph - N/A   Overcast
3:53 PM 79.0 °F - 68.0 °F 69% 30.03 in 10.0 mi NE 16.1 mph - N/A   Overcast
4:08 PM 78.8 °F - 66.2 °F 65% 30.03 in 10.0 mi NE 16.1 mph - N/A   Overcast
4:53 PM 78.1 °F - 68.0 °F 71% 30.02 in 10.0 mi ENE 18.4 mph - N/A   Mostly Cloudy
5:53 PM 77.0 °F - 66.9 °F 71% 30.02 in 10.0 mi NE 17.3 mph - N/A   Overcast
6:53 PM 75.9 °F - 68.0 °F 76% 30.03 in 10.0 mi NE 18.4 mph - N/A   Overcast
7:53 PM 75.9 °F - 68.0 °F 76% 30.04 in 10.0 mi ENE 15.0 mph 24.2 mph N/A   Overcast
8:53 PM 73.9 °F - 68.0 °F 82% 30.06 in 10.0 mi NE 18.4 mph - 0.00 in   Overcast
8:55 PM 73.4 °F - 68.0 °F 83% 30.07 in 10.0 mi NE 17.3 mph - N/A   Overcast
9:20 PM 73.4 °F - 68.0 °F 83% 30.07 in 10.0 mi NE 17.3 mph - N/A   Overcast
9:30 PM 73.4 °F - 69.8 °F 88% 30.07 in 10.0 mi NE 17.3 mph - N/A   Overcast
9:53 PM 75.0 °F - 68.0 °F 79% 30.07 in 10.0 mi NE 15.0 mph - N/A   Overcast
10:53 PM 75.0 °F - 66.9 °F 76% 30.07 in 10.0 mi NE 13.8 mph 27.6 mph N/A   Overcast
11:01 PM 75.2 °F - 68.0 °F 78% 30.07 in 10.0 mi NE 15.0 mph - N/A   Overcast
11:53 PM 75.9 °F - 69.1 °F 79% 30.06 in 10.0 mi NE 17.3 mph - N/A   Overcast